Location: Asheville, NC
(35.6000°N, 82.5500°W)
Time: 06:06:28
(UTC-04:00)

M-CUBED/EXP-1 PRIME - Pass Details

Date: 12 February 2018
Orbit: 431 x 676 km, 101.7° (Epoch: 19 May)

Event Time Altitude Azimuth Distance (km) Brightness Sun altitude
Rises 05:43:32 0° 30° (NNE) 2,463 ? -20.2°
Reaches altitude 10° 05:45:42 10° 43° (NE) 1,613 ? -19.7°
Maximum altitude 05:48:42 28° 103° (ESE) 937 ? -19.1°
Drops below altitude 10° 05:51:51 10° 164° (SSE) 1,702 ? -18.5°
Sets 05:54:12 0° 176° (S) 2,629 ? -18.0°
